When you browse on this site, cookies collect data to enhance your experience and personalize the content and advertising you see.
Visit our Privacy Policy to learn more. By continuing to use the site, you agree to this use of cookies and data.

Tiempo cada hora Bracknell

Hoy, 4 Agosto, Martes

Tiempo Temperatura Precipitaciones Viento Presión Humedad
00:00 +13°C° 0 mm 1 mps 756 mmHg 78%
01:00 +13°C° 0 mm 1 mps 756 mmHg 80%
02:00 +12°C° 0 mm 1 mps 756 mmHg 81%
03:00 +12°C° 0 mm 1 mps 756 mmHg 82%
04:00 +12°C° 0 mm 1 mps 755 mmHg 80%
05:00 +13°C° 0 mm 1 mps 755 mmHg 79%
06:00 +13°C° 0 mm 0 mps 755 mmHg 76%
07:00 +15°C° 0 mm 1 mps 755 mmHg 71%
08:00 +17°C° 0 mm 2 mps 756 mmHg 67%
09:00 +18°C° 0 mm 3 mps 756 mmHg 63%
10:00 +17°C° 0 mm 3 mps 756 mmHg 65%
11:00 +17°C° 0 mm 3 mps 755 mmHg 67%
12:00 +16°C° 0 mm 3 mps 755 mmHg 69%
13:00 +17°C° 0 mm 4 mps 755 mmHg 64%
14:00 +19°C° 0 mm 5 mps 754 mmHg 58%
15:00 +21°C° 0 mm 6 mps 754 mmHg 53%
16:00 +20°C° 0 mm 6 mps 754 mmHg 57%
17:00 +19°C° 0 mm 5 mps 754 mmHg 62%
18:00 +19°C° 0 mm 5 mps 753 mmHg 66%
19:00 +17°C° 0 mm 5 mps 753 mmHg 70%
20:00 +16°C° 0 mm 5 mps 754 mmHg 74%
21:00 +15°C° 0 mm 5 mps 754 mmHg 78%
22:00 +15°C° 0 mm 5 mps 753 mmHg 80%
23:00 +15°C° 0 mm 5 mps 753 mmHg 82%

Mañana, 5 Agosto, Miércoles

Tiempo Temperatura Precipitaciones Viento Presión Humedad
00:00 +15°C° 0 mm 5 mps 753 mmHg 84%
01:00 +14°C° 0 mm 5 mps 753 mmHg 86%
02:00 +14°C° 0 mm 5 mps 753 mmHg 88%
03:00 +14°C° 0 mm 5 mps 753 mmHg 90%
04:00 +15°C° 0 mm 5 mps 752 mmHg 89%
05:00 +15°C° 0 mm 5 mps 752 mmHg 88%
06:00 +15°C° 0 mm 5 mps 752 mmHg 87%
07:00 +17°C° 0 mm 5 mps 752 mmHg 80%
08:00 +19°C° 0 mm 6 mps 753 mmHg 74%
09:00 +20°C° 0 mm 6 mps 753 mmHg 68%
10:00 +21°C° 0 mm 6 mps 753 mmHg 63%
11:00 +22°C° 0 mm 6 mps 753 mmHg 58%
12:00 +24°C° 0 mm 6 mps 752 mmHg 53%
13:00 +24°C° 0 mm 6 mps 752 mmHg 53%
14:00 +24°C° 0 mm 6 mps 752 mmHg 53%
15:00 +24°C° 0 mm 6 mps 752 mmHg 54%
16:00 +23°C° 0 mm 6 mps 752 mmHg 59%
17:00 +22°C° 0 mm 5 mps 752 mmHg 65%
18:00 +21°C° 0 mm 5 mps 752 mmHg 70%
19:00 +20°C° 0 mm 4 mps 753 mmHg 74%
20:00 +19°C° 0 mm 4 mps 753 mmHg 78%
21:00 +19°C° 0 mm 4 mps 753 mmHg 82%
22:00 +18°C° 0 mm 4 mps 753 mmHg 84%
23:00 +18°C° 0 mm 4 mps 753 mmHg 85%

Pasado mañana, 6 Agosto, Jueves

Tiempo Temperatura Precipitaciones Viento Presión Humedad
00:00 +18°C° 0 mm 4 mps 753 mmHg 87%
01:00 +18°C° 0 mm 3 mps 753 mmHg 88%
02:00 +18°C° 0 mm 3 mps 753 mmHg 88%
03:00 +17°C° 0 mm 3 mps 754 mmHg 89%
04:00 +17°C° 0 mm 3 mps 754 mmHg 88%
05:00 +18°C° 0 mm 2 mps 754 mmHg 87%
06:00 +18°C° 0 mm 2 mps 754 mmHg 85%
07:00 +19°C° 0 mm 2 mps 754 mmHg 78%
08:00 +21°C° 0 mm 3 mps 755 mmHg 71%
09:00 +22°C° 0 mm 3 mps 755 mmHg 64%
10:00 +25°C° 0 mm 3 mps 755 mmHg 57%
11:00 +27°C° 0 mm 3 mps 755 mmHg 49%
12:00 +28°C° 0 mm 3 mps 755 mmHg 42%
13:00 +28°C° 0 mm 3 mps 755 mmHg 41%
14:00 +29°C° 0 mm 3 mps 755 mmHg 40%
15:00 +29°C° 0 mm 4 mps 755 mmHg 39%
16:00 +28°C° 0 mm 3 mps 755 mmHg 43%
17:00 +27°C° 0 mm 3 mps 755 mmHg 48%
18:00 +26°C° 0 mm 3 mps 755 mmHg 52%
19:00 +24°C° 0 mm 2 mps 755 mmHg 56%
20:00 +21°C° 0 mm 2 mps 755 mmHg 61%
21:00 +19°C° 0 mm 2 mps 756 mmHg 65%
22:00 +20°C° 0 mm 1 mps 756 mmHg 67%
23:00 +19°C° 0 mm 1 mps 756 mmHg 70%

7 Agosto, Viernes

Tiempo Temperatura Precipitaciones Viento Presión Humedad
00:00 +19°C° 0 mm 1 mps 756 mmHg 72%
01:00 +16°C° 0 mm 0 mps 756 mmHg 73%
02:00 +16°C° 0 mm 0 mps 756 mmHg 73%
03:00 +16°C° 0 mm 0 mps 756 mmHg 73%
04:00 +17°C° 0 mm 0 mps 756 mmHg 72%
05:00 +17°C° 0 mm 0 mps 756 mmHg 71%
06:00 +18°C° 0 mm 0 mps 756 mmHg 70%
07:00 +22°C° 0 mm 1 mps 756 mmHg 63%
08:00 +24°C° 0 mm 1 mps 756 mmHg 55%
09:00 +26°C° 0 mm 2 mps 756 mmHg 48%
10:00 +27°C° 0 mm 2 mps 756 mmHg 45%
11:00 +29°C° 0 mm 2 mps 756 mmHg 42%
12:00 +30°C° 0 mm 3 mps 756 mmHg 39%
13:00 +31°C° 0 mm 3 mps 756 mmHg 39%
14:00 +32°C° 0 mm 4 mps 756 mmHg 38%
15:00 +33°C° 0 mm 4 mps 756 mmHg 37%
16:00 +31°C° 0 mm 3 mps 756 mmHg 41%
17:00 +30°C° 0 mm 3 mps 756 mmHg 45%
18:00 +29°C° 0 mm 3 mps 756 mmHg 50%
19:00 +26°C° 0 mm 2 mps 756 mmHg 56%
20:00 +24°C° 0 mm 2 mps 756 mmHg 62%
21:00 +21°C° 0 mm 2 mps 756 mmHg 68%
22:00 +21°C° 0 mm 2 mps 757 mmHg 73%
23:00 +20°C° 0 mm 2 mps 757 mmHg 78%

8 Agosto, Sábado

Tiempo Temperatura Precipitaciones Viento Presión Humedad
00:00 +20°C° 0 mm 2 mps 757 mmHg 83%
01:00 +20°C° 0 mm 2 mps 757 mmHg 82%
02:00 +20°C° 0 mm 2 mps 757 mmHg 82%
03:00 +20°C° 0 mm 3 mps 757 mmHg 81%
04:00 +20°C° 0.1 mm 3 mps 757 mmHg 80%
05:00 +19°C° 0.1 mm 3 mps 757 mmHg 80%
06:00 +19°C° 0.1 mm 3 mps 757 mmHg 79%
07:00 +20°C° 0 mm 3 mps 758 mmHg 73%
08:00 +22°C° 0 mm 4 mps 758 mmHg 68%
09:00 +23°C° 0 mm 4 mps 758 mmHg 62%
10:00 +26°C° 0 mm 4 mps 758 mmHg 59%
11:00 +27°C° 0 mm 4 mps 758 mmHg 55%
12:00 +28°C° 0 mm 4 mps 759 mmHg 52%
13:00 +28°C° 0 mm 4 mps 759 mmHg 51%
14:00 +29°C° 0 mm 3 mps 759 mmHg 50%
15:00 +29°C° 0 mm 3 mps 759 mmHg 49%
16:00 +28°C° 0 mm 4 mps 759 mmHg 53%
17:00 +27°C° 0 mm 4 mps 759 mmHg 56%
18:00 +27°C° 0 mm 4 mps 759 mmHg 60%
19:00 +25°C° 0 mm 5 mps 759 mmHg 64%
20:00 +22°C° 0 mm 5 mps 760 mmHg 68%
21:00 +21°C° 0 mm 5 mps 760 mmHg 73%
22:00 +19°C° 0 mm 5 mps 760 mmHg 75%
23:00 +17°C° 0 mm 5 mps 760 mmHg 77%

9 Agosto, Domingo

Tiempo Temperatura Precipitaciones Viento Presión Humedad
00:00 +16°C° 0 mm 5 mps 760 mmHg 79%
01:00 +16°C° 0 mm 5 mps 760 mmHg 81%
02:00 +15°C° 0 mm 5 mps 760 mmHg 83%
03:00 +14°C° 0 mm 5 mps 760 mmHg 85%
04:00 +14°C° 0 mm 5 mps 760 mmHg 85%
05:00 +14°C° 0 mm 5 mps 760 mmHg 84%
06:00 +15°C° 0 mm 5 mps 760 mmHg 84%
07:00 +16°C° 0 mm 6 mps 760 mmHg 79%
08:00 +17°C° 0 mm 6 mps 760 mmHg 75%
09:00 +19°C° 0 mm 6 mps 760 mmHg 71%
10:00 +20°C° 0 mm 6 mps 760 mmHg 67%
11:00 +21°C° 0 mm 6 mps 760 mmHg 63%
12:00 +22°C° 0 mm 7 mps 760 mmHg 59%
13:00 +23°C° 0 mm 6 mps 760 mmHg 58%
14:00 +23°C° 0 mm 6 mps 759 mmHg 57%
15:00 +24°C° 0 mm 6 mps 759 mmHg 56%
16:00 +23°C° 0 mm 6 mps 759 mmHg 59%
17:00 +22°C° 0 mm 6 mps 759 mmHg 61%
18:00 +21°C° 0 mm 6 mps 759 mmHg 64%
19:00 +20°C° 0 mm 6 mps 759 mmHg 66%
20:00 +19°C° 0 mm 6 mps 759 mmHg 68%
21:00 +17°C° 0 mm 6 mps 759 mmHg 70%
22:00 +16°C° 0 mm 6 mps 758 mmHg 71%
23:00 +16°C° 0 mm 6 mps 758 mmHg 72%
Mostrar más